Location: Berlise
(49.6641°N, 4.1077°E)
Time: 01:31:25
(UTC+00:00)

Lacrosse 4 Rocket - Pass Details

Date: 27 January 2021
Orbit: 536 x 621 km, 68.0° (Epoch: 24 February)

Event Time Altitude Azimuth Distance (km) Brightness Sun altitude
Exits shadow 04:04:24 24° 107° (ESE) 1,224 3.6 -31.9°
Drops below altitude 10° 04:07:46 10° 56° (NE) 1,939 4.8 -31.4°
Sets 04:10:21 0° 43° (NE) 2,862 5.7 -31.0°
